Location: Bathurst
(33.4193°S, 149.5775°E)
Time: 09:10:41
(UTC+10:00)

Vanguard 1 Rocket - Pass Details

Date: 19 June 2021
Orbit: 650 x 4226 km, 34.3° (Epoch: 02 August)

Event Time Altitude Azimuth Distance (km) Brightness Sun altitude
Rises 10:00:03 0° 288° (WNW) 7,994 12.1 26.1°
Reaches altitude 10° 10:06:08 10° 288° (WNW) 6,568 11.7 26.7°
Maximum altitude 10:25:11 85° 13° (NNE) 2,157 9.9 28.6°
Drops below altitude 10° 10:34:28 10° 100° (E) 3,476 10.6 29.4°
Sets 10:36:41 0° 100° (E) 4,163 10.9 29.6°
